Location: Borealis Mine
(38.3824°N, 118.7610°W)
Time: 21:46:49
(UTC+00:00)

Cosmos 1666 - Visible Passes

Search period start: 28 November 2021 00:00
Search period end: 08 December 2021 00:00
Orbit: 494 x 517 km, 82.5° (Epoch: 28 November)

Date Brightness Start Highest point End Pass type
(mag) Time Alt. Az. Time Alt. Az. Time Alt. Az.
02 Dec5.901:35:41SE01:35:41SE01:26:01NNEvisible
02 Dec5.803:10:15SSW03:10:15SSW03:00:56NNWvisible
03 Dec 3.7 02:44:50 10° NNW 02:48:23 44° W 02:51:54 10° SSW visible
04 Dec 3.0 02:26:38 10° NNW 02:30:19 62° W 02:33:58 10° S visible
05 Dec 2.5 02:08:30 10° N 02:12:14 87° W 02:15:56 10° S visible
05 Dec 4.7 14:20:06 10° SSE 14:23:31 33° E 14:26:56 10° NNE visible
06 Dec 2.5 01:50:26 10° N 01:54:08 67° E 01:57:48 10° SSE visible
06 Dec 5.2 14:02:23 10° SE 14:05:29 25° E 14:08:35 10° NE visible
07 Dec 2.8 01:32:24 10° N 01:36:01 47° E 01:39:36 10° SSE visible
07 Dec 5.7 13:44:48 10° SE 13:47:27 18° E 13:50:07 10° NE visible
